Location: Cicognara
(44.9500°N, 10.4667°E)
Time: 09:25:59
(UTC+00:00)

Meteor 2-20 Rocket - Pass Details

Date: 20 June 2021
Orbit: 941 x 959 km, 82.5° (Epoch: 04 August)

Event Time Altitude Azimuth Distance (km) Brightness Sun altitude
Rises 19:56:44 0° 185° (S) 3,612 7.1 -7.4°
Reaches altitude 10° 19:59:13 10° 185° (S) 2,668 6.4 -7.8°
Maximum altitude 20:05:20 87° 98° (E) 956 4.5 -8.5°
Drops below altitude 10° 20:11:28 10° 10° (N) 2,674 7.4 -9.3°
Sets 20:13:57 0° 10° (N) 3,621 8.1 -9.6°
